Time,TemperatureF,DewpointF,PressureIn,WindDirection,WindDirectionDegrees,WindSpeedMPH,WindSpeedGustMPH,Humidity,HourlyPrecipIn,Conditions,Clouds,dailyrainin,SoftwareType,DateUTC
2013-05-17 00:00:00,71.0,26.1,29.88,SSE,155,0.0,5.9,18,0.00,,---,0.00,VWS V12.07,2013-05-17 07:00:00,
2013-05-17 00:02:00,71.2,26.1,29.88,SSE,155,0.0,5.9,18,0.00,,---,0.00,VWS V12.07,2013-05-17 07:02:00,
2013-05-17 00:07:00,71.2,26.2,29.88,South,190,0.0,5.9,18,0.00,,---,0.00,VWS V12.07,2013-05-17 07:07:00,
2013-05-17 00:12:00,71.2,26.4,29.88,South,190,0.0,5.9,19,0.00,,---,0.00,VWS V12.07,2013-05-17 07:12:00,
2013-05-17 00:17:00,71.0,26.6,29.88,South,190,0.0,5.9,19,0.00,,---,0.00,VWS V12.07,2013-05-17 07:17:00,
2013-05-17 00:22:00,70.8,26.8,29.88,South,190,0.0,5.9,19,0.00,,---,0.00,VWS V12.07,2013-05-17 07:22:00,
2013-05-17 00:27:00,70.4,27.0,29.87,South,190,0.0,5.9,20,0.00,,---,0.00,VWS V12.07,2013-05-17 07:27:00,
2013-05-17 00:30:00,70.5,27.0,29.87,South,190,0.0,4.4,20,0.00,,---,0.00,VWS V12.07,2013-05-17 07:30:00,
2013-05-17 00:32:00,70.3,27.1,29.87,SSW,193,3.4,5.9,20,0.00,,---,0.00,VWS V12.07,2013-05-17 07:32:00,
2013-05-17 00:37:00,70.2,27.2,29.87,South,187,0.0,5.9,20,0.00,,---,0.00,VWS V12.07,2013-05-17 07:37:00,
2013-05-17 00:42:00,70.1,27.4,29.87,South,187,0.0,5.9,20,0.00,,---,0.00,VWS V12.07,2013-05-17 07:42:00,
2013-05-17 00:47:00,69.4,26.7,29.87,South,187,0.0,5.9,20,0.00,,---,0.00,VWS V12.07,2013-05-17 07:47:00,
2013-05-17 00:52:00,68.4,26.5,29.87,South,187,0.0,4.5,21,0.00,,---,0.00,VWS V12.07,2013-05-17 07:52:00,
2013-05-17 00:57:00,68.3,26.5,29.87,South,187,0.0,4.5,21,0.00,,---,0.00,VWS V12.07,2013-05-17 07:57:00,
2013-05-17 01:00:00,68.3,26.5,29.87,South,187,0.0,4.5,21,0.00,,---,0.00,VWS V12.07,2013-05-17 08:00:00,
2013-05-17 01:02:00,68.3,26.2,29.87,South,187,0.0,4.5,20,0.00,,---,0.00,VWS V12.07,2013-05-17 08:02:00,
2013-05-17 01:07:00,68.5,26.0,29.87,South,187,0.0,4.5,20,0.00,,---,0.00,VWS V12.07,2013-05-17 08:07:00,
2013-05-17 01:12:00,68.4,25.7,29.87,South,187,0.0,4.5,20,0.00,,---,0.00,VWS V12.07,2013-05-17 08:12:00,
2013-05-17 01:18:00,68.3,25.4,29.87,South,187,0.0,4.5,20,0.00,,---,0.00,VWS V12.07,2013-05-17 08:18:00,
2013-05-17 01:23:00,68.0,25.0,29.87,South,187,0.0,4.5,20,0.00,,---,0.00,VWS V12.07,2013-05-17 08:23:00,
2013-05-17 01:28:00,68.1,24.3,29.87,SSE,156,0.0,4.5,19,0.00,,---,0.00,VWS V12.07,2013-05-17 08:28:00,
2013-05-17 01:30:00,68.2,24.3,29.87,SSE,156,0.0,4.3,19,0.00,,---,0.00,VWS V12.07,2013-05-17 08:30:00,
2013-05-17 01:33:00,68.4,23.8,29.87,SSE,156,0.0,4.5,18,0.00,,---,0.00,VWS V12.07,2013-05-17 08:33:00,
2013-05-17 01:38:00,68.5,23.8,29.87,South,183,0.0,5.5,18,0.00,,---,0.00,VWS V12.07,2013-05-17 08:38:00,
2013-05-17 01:43:00,68.4,23.7,29.87,South,183,0.0,5.5,18,0.00,,---,0.00,VWS V12.07,2013-05-17 08:43:00,
2013-05-17 01:48:00,68.4,23.7,29.87,South,183,0.0,5.5,18,0.00,,---,0.00,VWS V12.07,2013-05-17 08:48:00,
2013-05-17 01:53:00,68.4,23.8,29.87,South,184,0.0,6.3,18,0.00,,---,0.00,VWS V12.07,2013-05-17 08:53:00,
2013-05-17 01:58:00,68.3,23.7,29.87,SE,146,0.0,6.8,18,0.00,,---,0.00,VWS V12.07,2013-05-17 08:58:00,
2013-05-17 02:00:00,68.4,23.8,29.87,SE,146,0.0,6.8,18,0.00,,---,0.00,VWS V12.07,2013-05-17 09:00:00,
2013-05-17 02:03:00,68.4,23.9,29.87,SSE,158,4.4,6.8,18,0.00,,---,0.00,VWS V12.07,2013-05-17 09:03:00,
2013-05-17 02:08:00,68.4,23.9,29.87,South,186,0.0,8.8,18,0.00,,---,0.00,VWS V12.07,2013-05-17 09:08:00,
2013-05-17 02:13:00,68.3,24.0,29.87,SSE,156,0.0,8.8,19,0.00,,---,0.00,VWS V12.07,2013-05-17 09:13:00,
2013-05-17 02:18:00,68.1,24.4,29.87,SSW,198,4.7,8.8,19,0.00,,---,0.00,VWS V12.07,2013-05-17 09:18:00,
2013-05-17 02:23:00,68.1,24.7,29.87,South,172,0.0,8.8,19,0.00,,---,0.00,VWS V12.07,2013-05-17 09:23:00,
2013-05-17 02:28:00,68.0,24.9,29.87,South,172,0.0,8.8,20,0.00,,---,0.00,VWS V12.07,2013-05-17 09:28:00,
2013-05-17 02:30:00,67.8,24.7,29.87,South,172,0.0,8.8,20,0.00,,---,0.00,VWS V12.07,2013-05-17 09:30:00,
2013-05-17 02:33:00,67.4,25.2,29.87,South,172,0.0,8.8,20,0.00,,---,0.00,VWS V12.07,2013-05-17 09:33:00,
2013-05-17 02:38:00,67.0,25.8,29.87,South,172,0.0,8.8,21,0.00,,---,0.00,VWS V12.07,2013-05-17 09:38:00,
2013-05-17 02:43:00,66.2,25.9,29.87,South,172,0.0,8.8,22,0.00,,---,0.00,VWS V12.07,2013-05-17 09:43:00,
2013-05-17 02:48:00,65.5,26.0,29.87,South,172,0.0,8.8,22,0.00,,---,0.00,VWS V12.07,2013-05-17 09:48:00,
2013-05-17 02:53:00,64.9,26.6,29.87,South,172,0.0,0.0,23,0.00,,---,0.00,VWS V12.07,2013-05-17 09:53:00,
2013-05-17 02:58:00,64.0,26.6,29.87,South,172,0.0,0.0,24,0.00,,---,0.00,VWS V12.07,2013-05-17 09:58:00,
2013-05-17 03:00:00,64.0,26.6,29.87,South,172,0.0,0.0,24,0.00,,---,0.00,VWS V12.07,2013-05-17 10:00:00,
2013-05-17 03:03:00,63.7,27.0,29.87,South,172,0.0,0.0,25,0.00,,---,0.00,VWS V12.07,2013-05-17 10:03:00,
2013-05-17 03:08:00,63.4,27.3,29.87,South,172,0.0,0.0,25,0.00,,---,0.00,VWS V12.07,2013-05-17 10:08:00,
2013-05-17 03:13:00,63.0,27.6,29.87,South,172,0.0,0.0,26,0.00,,---,0.00,VWS V12.07,2013-05-17 10:13:00,
2013-05-17 03:18:00,62.5,28.0,29.88,South,172,0.0,0.0,27,0.00,,---,0.00,VWS V12.07,2013-05-17 10:18:00,
2013-05-17 03:23:00,61.9,28.0,29.87,South,172,0.0,0.0,28,0.00,,---,0.00,VWS V12.07,2013-05-17 10:23:00,
2013-05-17 03:28:00,61.5,28.2,29.87,South,172,0.0,0.0,28,0.00,,---,0.00,VWS V12.07,2013-05-17 10:28:00,
2013-05-17 03:30:00,61.5,28.2,29.87,South,172,0.0,0.0,28,0.00,,---,0.00,VWS V12.07,2013-05-17 10:30:00,
2013-05-17 03:33:00,61.2,28.2,29.87,South,172,0.0,0.0,28,0.00,,---,0.00,VWS V12.07,2013-05-17 10:33:00,
2013-05-17 03:38:00,60.9,28.4,29.87,South,172,0.0,0.0,29,0.00,,---,0.00,VWS V12.07,2013-05-17 10:38:00,
2013-05-17 03:43:00,60.6,28.5,29.87,South,172,0.0,0.0,29,0.00,,---,0.00,VWS V12.07,2013-05-17 10:43:00,
2013-05-17 03:48:00,60.4,28.7,29.87,South,172,0.0,0.0,30,0.00,,---,0.00,VWS V12.07,2013-05-17 10:48:00,
2013-05-17 03:53:00,60.1,28.6,29.87,South,172,0.0,0.0,30,0.00,,---,0.00,VWS V12.07,2013-05-17 10:53:00,
2013-05-17 03:58:00,59.6,28.5,29.87,South,172,0.0,0.0,30,0.00,,---,0.00,VWS V12.07,2013-05-17 10:58:00,
2013-05-17 04:00:00,59.6,28.5,29.87,South,172,0.0,0.0,30,0.00,,---,0.00,VWS V12.07,2013-05-17 11:00:00,
2013-05-17 04:03:00,59.7,28.5,29.87,South,172,0.0,0.0,30,0.00,,---,0.00,VWS V12.07,2013-05-17 11:03:00,
2013-05-17 04:08:00,59.8,28.6,29.87,South,172,0.0,0.0,30,0.00,,---,0.00,VWS V12.07,2013-05-17 11:08:00,
2013-05-17 04:13:00,59.7,28.6,29.87,South,172,0.0,0.0,30,0.00,,---,0.00,VWS V12.07,2013-05-17 11:13:00,
2013-05-17 04:18:00,59.4,28.6,29.87,South,172,0.0,0.0,31,0.00,,---,0.00,VWS V12.07,2013-05-17 11:18:00,
2013-05-17 04:23:00,59.2,28.9,29.87,South,172,0.0,0.0,31,0.00,,---,0.00,VWS V12.07,2013-05-17 11:23:00,
2013-05-17 04:28:00,58.7,29.1,29.87,South,172,0.0,0.0,32,0.00,,---,0.00,VWS V12.07,2013-05-17 11:28:00,
2013-05-17 04:30:00,58.7,29.1,29.87,South,172,0.0,0.0,32,0.00,,---,0.00,VWS V12.07,2013-05-17 11:30:00,
2013-05-17 04:33:00,58.7,29.0,29.87,South,172,0.0,0.0,32,0.00,,---,0.00,VWS V12.07,2013-05-17 11:33:00,
2013-05-17 04:38:00,59.2,28.9,29.87,South,172,0.0,0.0,31,0.00,,---,0.00,VWS V12.07,2013-05-17 11:38:00,
2013-05-17 04:43:00,60.0,29.3,29.87,NW,312,4.3,11.7,31,0.00,,---,0.00,VWS V12.07,2013-05-17 11:43:00,
2013-05-17 04:48:00,61.3,28.9,29.87,NNE,28,0.0,11.7,29,0.00,,---,0.00,VWS V12.07,2013-05-17 11:48:00,
2013-05-17 04:53:00,61.6,29.0,29.87,NNE,28,0.0,11.7,29,0.00,,---,0.00,VWS V12.07,2013-05-17 11:53:00,
2013-05-17 04:58:00,61.5,29.0,29.87,NNE,28,0.0,11.7,29,0.00,,---,0.00,VWS V12.07,2013-05-17 11:58:00,
2013-05-17 05:00:00,61.4,28.9,29.87,NNE,28,0.0,11.7,29,0.00,,---,0.00,VWS V12.07,2013-05-17 12:00:00,
2013-05-17 05:03:00,61.1,29.3,29.86,WNW,284,0.0,11.7,30,0.00,,---,0.00,VWS V12.07,2013-05-17 12:03:00,
2013-05-17 05:08:00,60.5,29.5,29.87,WNW,284,0.0,11.7,31,0.00,,---,0.00,VWS V12.07,2013-05-17 12:08:00,
2013-05-17 05:13:00,60.1,29.2,29.87,NNE,22,0.0,11.7,31,0.00,,---,0.00,VWS V12.07,2013-05-17 12:13:00,
2013-05-17 05:18:00,60.2,29.3,29.87,NNE,22,0.0,11.7,31,0.00,,---,0.00,VWS V12.07,2013-05-17 12:18:00,
2013-05-17 05:23:00,60.3,29.3,29.88,NNE,22,0.0,11.7,31,0.00,,---,0.00,VWS V12.07,2013-05-17 12:23:00,
2013-05-17 05:28:00,60.3,29.4,29.88,NNE,22,0.0,11.7,31,0.00,,---,0.00,VWS V12.07,2013-05-17 12:28:00,
2013-05-17 05:30:00,60.3,29.4,29.88,NNE,22,0.0,5.1,31,0.00,,---,0.00,VWS V12.07,2013-05-17 12:30:00,
2013-05-17 05:33:00,60.3,29.4,29.88,NNE,22,0.0,11.7,31,0.00,,---,0.00,VWS V12.07,2013-05-17 12:33:00,
2013-05-17 05:38:00,60.4,29.6,29.88,NNE,22,0.0,11.7,31,0.00,,---,0.00,VWS V12.07,2013-05-17 12:38:00,
2013-05-17 05:43:00,60.5,29.7,29.88,NNE,22,0.0,11.7,31,0.00,,---,0.00,VWS V12.07,2013-05-17 12:43:00,
2013-05-17 05:48:00,60.7,29.8,29.89,NNE,22,0.0,11.7,31,0.00,,---,0.00,VWS V12.07,2013-05-17 12:48:00,
2013-05-17 05:53:00,60.6,30.1,29.89,NNE,22,0.0,1.7,31,0.00,,---,0.00,VWS V12.07,2013-05-17 12:53:00,
2013-05-17 05:58:00,60.5,30.5,29.90,NNE,22,0.0,1.7,32,0.00,,---,0.00,VWS V12.07,2013-05-17 12:58:00,
2013-05-17 06:00:00,60.5,30.5,29.90,NNE,22,0.0,1.7,32,0.00,,---,0.00,VWS V12.07,2013-05-17 13:00:00,
2013-05-17 06:03:00,60.2,30.6,29.90,NNE,22,0.0,1.7,32,0.00,,---,0.00,VWS V12.07,2013-05-17 13:03:00,
2013-05-17 06:08:00,60.1,30.6,29.90,NNE,22,0.0,1.7,33,0.00,,---,0.00,VWS V12.07,2013-05-17 13:08:00,
2013-05-17 06:13:00,60.0,31.0,29.90,NNE,22,0.0,1.7,33,0.00,,---,0.00,VWS V12.07,2013-05-17 13:13:00,
2013-05-17 06:18:00,59.9,31.1,29.91,NNE,22,0.0,1.7,34,0.00,,---,0.00,VWS V12.07,2013-05-17 13:18:00,
2013-05-17 06:23:00,60.2,31.7,29.91,NNE,22,0.0,1.7,34,0.00,,---,0.00,VWS V12.07,2013-05-17 13:23:00,
2013-05-17 06:28:00,60.6,32.8,29.91,NNE,22,0.0,1.7,35,0.00,,---,0.00,VWS V12.07,2013-05-17 13:28:00,
2013-05-17 06:30:00,60.6,32.8,29.91,NNE,22,0.0,0.0,35,0.00,,---,0.00,VWS V12.07,2013-05-17 13:30:00,
2013-05-17 06:33:00,61.1,33.9,29.91,NNE,22,0.0,1.7,36,0.00,,---,0.00,VWS V12.07,2013-05-17 13:33:00,
2013-05-17 06:38:00,61.5,34.4,29.91,NNE,22,2.1,2.1,36,0.00,,---,0.00,VWS V12.07,2013-05-17 13:38:00,
2013-05-17 06:43:00,61.6,33.6,29.91,NNE,22,0.0,2.1,35,0.00,,---,0.00,VWS V12.07,2013-05-17 13:43:00,
2013-05-17 06:48:00,61.9,33.1,29.91,NNE,22,0.0,2.1,34,0.00,,---,0.00,VWS V12.07,2013-05-17 13:48:00,
2013-05-17 06:53:00,62.3,32.9,29.92,NNE,22,0.0,2.1,33,0.00,,---,0.00,VWS V12.07,2013-05-17 13:53:00,
2013-05-17 06:58:00,62.8,33.0,29.92,NNE,22,0.0,2.1,33,0.00,,---,0.00,VWS V12.07,2013-05-17 13:58:00,
2013-05-17 07:00:00,62.8,33.0,29.92,NNE,22,0.0,2.1,33,0.00,,---,0.00,VWS V12.07,2013-05-17 14:00:00,
2013-05-17 07:03:00,63.8,31.3,29.91,NNE,22,0.0,2.1,29,0.00,,---,0.00,VWS V12.07,2013-05-17 14:03:00,
2013-05-17 07:08:00,64.7,31.6,29.91,NNE,22,0.0,2.1,29,0.00,,---,0.00,VWS V12.07,2013-05-17 14:08:00,
2013-05-17 07:13:00,65.4,31.7,29.91,NNE,22,0.0,2.1,28,0.00,,---,0.00,VWS V12.07,2013-05-17 14:13:00,
2013-05-17 07:18:00,66.4,32.1,29.91,NNE,22,0.0,2.1,28,0.00,,---,0.00,VWS V12.07,2013-05-17 14:18:00,
2013-05-17 07:23:00,67.9,31.4,29.92,NNE,22,0.0,2.1,26,0.00,,---,0.00,VWS V12.07,2013-05-17 14:23:00,
2013-05-17 07:28:00,69.4,29.7,29.92,NNE,22,0.0,2.1,23,0.00,,---,0.00,VWS V12.07,2013-05-17 14:28:00,
2013-05-17 07:30:00,69.4,29.7,29.92,NNE,22,0.0,0.0,23,0.00,,---,0.00,VWS V12.07,2013-05-17 14:30:00,
2013-05-17 07:33:00,71.2,28.4,29.92,South,181,8.1,10.6,20,0.00,,---,0.00,VWS V12.07,2013-05-17 14:33:00,
2013-05-17 07:38:00,72.1,28.7,29.92,SSE,148,0.0,10.6,20,0.00,,---,0.00,VWS V12.07,2013-05-17 14:38:00,
2013-05-17 07:43:00,72.5,27.8,29.92,SE,124,0.0,10.6,19,0.00,,---,0.00,VWS V12.07,2013-05-17 14:43:00,
2013-05-17 07:48:00,72.4,27.3,29.92,ENE,68,0.0,10.6,19,0.00,,---,0.00,VWS V12.07,2013-05-17 14:48:00,
2013-05-17 07:53:00,72.5,27.1,29.92,ENE,68,0.0,10.6,18,0.00,,---,0.00,VWS V12.07,2013-05-17 14:53:00,
2013-05-17 07:58:00,72.4,27.1,29.92,ENE,68,0.0,10.6,18,0.00,,---,0.00,VWS V12.07,2013-05-17 14:58:00,
2013-05-17 08:00:00,72.4,27.1,29.92,ENE,68,0.0,10.6,18,0.00,,---,0.00,VWS V12.07,2013-05-17 15:00:00,
2013-05-17 08:03:00,72.5,27.7,29.92,ENE,68,0.0,10.6,19,0.00,,---,0.00,VWS V12.07,2013-05-17 15:03:00,
2013-05-17 08:08:00,72.5,27.7,29.92,ENE,68,0.0,10.6,19,0.00,,---,0.00,VWS V12.07,2013-05-17 15:08:00,
2013-05-17 08:13:00,72.7,27.6,29.92,SE,128,0.0,10.6,19,0.00,,---,0.00,VWS V12.07,2013-05-17 15:13:00,
2013-05-17 08:18:00,73.3,26.7,29.93,East,97,2.7,10.6,18,0.00,,---,0.00,VWS V12.07,2013-05-17 15:18:00,
2013-05-17 08:23:00,74.1,26.3,29.93,South,172,5.4,10.6,17,0.00,,---,0.00,VWS V12.07,2013-05-17 15:23:00,
2013-05-17 08:28:00,74.8,25.9,29.93,South,187,5.9,15.7,16,0.00,,---,0.00,VWS V12.07,2013-05-17 15:28:00,
2013-05-17 08:30:00,74.8,25.9,29.93,SSE,166,4.5,15.7,16,0.00,,---,0.00,VWS V12.07,2013-05-17 15:30:00,
2013-05-17 08:33:00,75.3,26.2,29.93,South,180,9.2,15.7,16,0.00,,---,0.00,VWS V12.07,2013-05-17 15:33:00,
2013-05-17 08:38:00,75.3,26.0,29.93,SSW,198,2.6,15.7,16,0.00,,---,0.00,VWS V12.07,2013-05-17 15:38:00,
2013-05-17 08:43:00,75.0,26.2,29.93,SE,139,3.4,15.7,16,0.00,,---,0.00,VWS V12.07,2013-05-17 15:43:00,
2013-05-17 08:48:00,74.9,26.6,29.92,SSE,153,3.4,15.7,17,0.00,,---,0.00,VWS V12.07,2013-05-17 15:48:00,
2013-05-17 08:53:00,75.2,26.4,29.92,South,177,5.1,11.6,16,0.00,,---,0.00,VWS V12.07,2013-05-17 15:53:00,
2013-05-17 08:58:00,75.7,27.1,29.93,SSW,207,0.0,13.2,16,0.00,,---,0.00,VWS V12.07,2013-05-17 15:58:00,
2013-05-17 09:00:00,75.7,27.1,29.93,SSW,207,0.0,13.2,16,0.00,,---,0.00,VWS V12.07,2013-05-17 16:00:00,
2013-05-17 09:03:00,76.2,27.1,29.92,SSW,212,8.9,13.2,16,0.00,,---,0.00,VWS V12.07,2013-05-17 16:03:00,
2013-05-17 09:08:00,76.6,27.4,29.93,South,172,14.0,15.2,16,0.00,,---,0.00,VWS V12.07,2013-05-17 16:08:00,
2013-05-17 09:13:00,77.3,27.8,29.92,SW,226,7.1,15.2,16,0.00,,---,0.00,VWS V12.07,2013-05-17 16:13:00,
2013-05-17 09:18:00,77.4,27.7,29.93,South,180,3.5,17.1,16,0.00,,---,0.00,VWS V12.07,2013-05-17 16:18:00,
2013-05-17 09:23:00,77.3,26.2,29.93,South,176,2.6,17.1,15,0.00,,---,0.00,VWS V12.07,2013-05-17 16:23:00,
2013-05-17 09:28:00,77.8,28.1,29.93,SSE,167,6.5,17.1,16,0.00,,---,0.00,VWS V12.07,2013-05-17 16:28:00,
2013-05-17 09:30:00,77.7,28.0,29.93,SSE,152,4.3,17.1,16,0.00,,---,0.00,VWS V12.07,2013-05-17 16:30:00,
2013-05-17 09:33:00,78.1,28.5,29.93,SSE,160,6.4,17.1,16,0.00,,---,0.00,VWS V12.07,2013-05-17 16:33:00,
2013-05-17 09:38:00,78.0,29.0,29.92,South,191,12.7,17.1,16,0.00,,---,0.00,VWS V12.07,2013-05-17 16:38:00,
2013-05-17 09:43:00,78.4,29.1,29.92,SW,217,6.7,17.1,16,0.00,,---,0.00,VWS V12.07,2013-05-17 16:43:00,
2013-05-17 09:48:00,79.1,29.4,29.92,SSE,148,10.8,18.6,16,0.00,,---,0.00,VWS V12.07,2013-05-17 16:48:00,
2013-05-17 09:53:00,79.3,29.4,29.92,South,190,8.8,18.6,16,0.00,,---,0.00,VWS V12.07,2013-05-17 16:53:00,
2013-05-17 09:58:00,79.1,29.4,29.92,SSW,205,6.9,18.6,16,0.00,,---,0.00,VWS V12.07,2013-05-17 16:58:00,
2013-05-17 10:00:00,79.1,29.4,29.92,SSE,149,7.8,18.6,16,0.00,,---,0.00,VWS V12.07,2013-05-17 17:00:00,
2013-05-17 10:03:00,78.8,28.9,29.92,South,180,5.1,21.6,16,0.00,,---,0.00,VWS V12.07,2013-05-17 17:03:00,
2013-05-17 10:08:00,79.0,29.8,29.92,SW,214,3.4,21.6,16,0.00,,---,0.00,VWS V12.07,2013-05-17 17:08:00,
2013-05-17 10:13:00,79.5,29.3,29.92,SSW,193,12.2,21.6,16,0.00,,---,0.00,VWS V12.07,2013-05-17 17:13:00,
2013-05-17 10:18:00,80.0,28.7,29.92,SE,141,5.0,21.6,15,0.00,,---,0.00,VWS V12.07,2013-05-17 17:18:00,
2013-05-17 10:23:00,80.4,29.2,29.93,SW,222,5.0,21.6,15,0.00,,---,0.00,VWS V12.07,2013-05-17 17:23:00,
2013-05-17 10:28:00,80.3,29.9,29.93,SSW,211,5.5,21.6,16,0.00,,---,0.00,VWS V12.07,2013-05-17 17:28:00,
2013-05-17 10:30:00,80.2,29.8,29.93,SW,225,4.2,21.6,16,0.00,,---,0.00,VWS V12.07,2013-05-17 17:30:00,
2013-05-17 10:33:00,80.5,28.8,29.93,South,184,11.1,21.6,15,0.00,,---,0.00,VWS V12.07,2013-05-17 17:33:00,
2013-05-17 10:38:00,80.2,28.9,29.93,SW,217,6.5,21.6,15,0.00,,---,0.00,VWS V12.07,2013-05-17 17:38:00,
2013-05-17 10:43:00,79.8,29.2,29.93,South,186,17.1,23.0,16,0.00,,---,0.00,VWS V12.07,2013-05-17 17:43:00,
2013-05-17 10:48:00,79.2,29.2,29.93,SW,236,12.7,23.0,16,0.00,,---,0.00,VWS V12.07,2013-05-17 17:48:00,
2013-05-17 10:53:00,79.2,29.5,29.93,South,188,12.3,23.0,16,0.00,,---,0.00,VWS V12.07,2013-05-17 17:53:00,
2013-05-17 10:58:00,79.5,29.0,29.93,SSE,153,4.7,23.0,16,0.00,,---,0.00,VWS V12.07,2013-05-17 17:58:00,
2013-05-17 11:00:00,79.5,29.0,29.93,SW,235,4.2,23.0,16,0.00,,---,0.00,VWS V12.07,2013-05-17 18:00:00,
2013-05-17 11:03:00,79.4,28.9,29.94,SW,215,5.2,23.0,16,0.00,,---,0.00,VWS V12.07,2013-05-17 18:03:00,
2013-05-17 11:08:00,79.5,29.3,29.94,SSW,193,6.0,23.0,16,0.00,,---,0.00,VWS V12.07,2013-05-17 18:08:00,
2013-05-17 11:13:00,80.1,29.1,29.94,South,169,7.8,23.0,16,0.00,,---,0.00,VWS V12.07,2013-05-17 18:13:00,
2013-05-17 11:18:00,80.5,29.1,29.94,SW,224,5.4,23.0,15,0.00,,---,0.00,VWS V12.07,2013-05-17 18:18:00,
2013-05-17 11:23:00,80.6,28.7,29.93,South,181,12.4,23.5,15,0.00,,---,0.00,VWS V12.07,2013-05-17 18:23:00,
2013-05-17 11:28:00,81.4,28.5,29.94,SSW,200,10.6,23.5,14,0.00,,---,0.00,VWS V12.07,2013-05-17 18:28:00,
2013-05-17 11:30:00,81.3,28.6,29.94,South,191,12.1,23.5,15,0.00,,---,0.00,VWS V12.07,2013-05-17 18:30:00,
2013-05-17 11:33:00,81.7,28.4,29.93,SW,232,8.0,23.5,14,0.00,,---,0.00,VWS V12.07,2013-05-17 18:33:00,
2013-05-17 11:38:00,82.1,29.1,29.93,SSW,193,5.8,23.5,14,0.00,,---,0.00,VWS V12.07,2013-05-17 18:38:00,
2013-05-17 11:43:00,81.9,28.6,29.93,SSE,166,0.0,23.5,14,0.00,,---,0.00,VWS V12.07,2013-05-17 18:43:00,
2013-05-17 11:48:00,82.5,27.5,29.93,SSE,150,9.3,23.5,13,0.00,,---,0.00,VWS V12.07,2013-05-17 18:48:00,
2013-05-17 11:53:00,82.5,27.7,29.93,SSW,198,8.1,22.0,14,0.00,,---,0.00,VWS V12.07,2013-05-17 18:53:00,
2013-05-17 11:58:00,81.9,28.1,29.93,South,187,6.7,22.0,14,0.00,,---,0.00,VWS V12.07,2013-05-17 18:58:00,
2013-05-17 12:00:00,81.7,27.9,29.93,SW,221,6.2,22.0,14,0.00,,---,0.00,VWS V12.07,2013-05-17 19:00:00,
2013-05-17 12:03:00,81.2,28.0,29.93,SW,217,5.7,22.0,14,0.00,,---,0.00,VWS V12.07,2013-05-17 19:03:00,
2013-05-17 12:08:00,81.0,28.0,29.93,SSE,167,12.9,22.0,14,0.00,,---,0.00,VWS V12.07,2013-05-17 19:08:00,
2013-05-17 12:13:00,80.9,28.5,29.93,SSE,159,11.2,24.8,15,0.00,,---,0.00,VWS V12.07,2013-05-17 19:13:00,
2013-05-17 12:18:00,81.1,28.6,29.93,SW,226,8.5,24.8,15,0.00,,---,0.00,VWS V12.07,2013-05-17 19:18:00,
2013-05-17 12:23:00,81.6,29.0,29.92,South,190,11.2,24.8,15,0.00,,---,0.00,VWS V12.07,2013-05-17 19:23:00,
2013-05-17 12:28:00,82.0,28.0,29.93,SSE,162,10.2,24.8,14,0.00,,---,0.00,VWS V12.07,2013-05-17 19:28:00,
2013-05-17 12:30:00,82.0,28.0,29.93,South,169,12.3,24.8,14,0.00,,---,0.00,VWS V12.07,2013-05-17 19:30:00,
2013-05-17 12:33:00,81.6,28.9,29.92,SSE,148,11.1,24.8,15,0.00,,---,0.00,VWS V12.07,2013-05-17 19:33:00,
2013-05-17 12:38:00,81.4,27.7,29.92,SSW,202,9.3,24.8,14,0.00,,---,0.00,VWS V12.07,2013-05-17 19:38:00,
2013-05-17 12:43:00,81.5,28.4,29.92,SSW,210,5.1,24.8,14,0.00,,---,0.00,VWS V12.07,2013-05-17 19:43:00,
2013-05-17 12:48:00,81.8,28.5,29.92,SSW,207,4.8,24.8,14,0.00,,---,0.00,VWS V12.07,2013-05-17 19:48:00,
2013-05-17 12:53:00,82.3,29.2,29.92,South,172,7.3,22.6,14,0.00,,---,0.00,VWS V12.07,2013-05-17 19:53:00,
2013-05-17 12:58:00,82.3,29.1,29.92,South,186,6.4,22.6,14,0.00,,---,0.00,VWS V12.07,2013-05-17 19:58:00,
2013-05-17 13:00:00,82.2,29.0,29.92,SSW,200,5.3,22.6,14,0.00,,---,0.00,VWS V12.07,2013-05-17 20:00:00,
2013-05-17 13:03:00,82.7,28.4,29.92,SSE,158,3.2,22.6,14,0.00,,---,0.00,VWS V12.07,2013-05-17 20:03:00,
2013-05-17 13:08:00,82.4,28.8,29.92,South,183,9.9,22.6,14,0.00,,---,0.00,VWS V12.07,2013-05-17 20:08:00,
2013-05-17 13:13:00,81.9,29.1,29.92,SSW,202,9.9,22.6,15,0.00,,---,0.00,VWS V12.07,2013-05-17 20:13:00,
2013-05-17 13:18:00,82.1,29.1,29.92,SSE,167,6.6,22.6,14,0.00,,---,0.00,VWS V12.07,2013-05-17 20:18:00,
2013-05-17 13:23:00,82.4,29.3,29.91,SSW,205,4.3,22.6,14,0.00,,---,0.00,VWS V12.07,2013-05-17 20:23:00,
2013-05-17 13:28:00,82.4,29.5,29.91,South,184,11.4,22.6,15,0.00,,---,0.00,VWS V12.07,2013-05-17 20:28:00,
2013-05-17 13:30:00,82.5,29.6,29.91,SSW,200,14.4,21.0,15,0.00,,---,0.00,VWS V12.07,2013-05-17 20:30:00,
2013-05-17 13:33:00,82.5,29.4,29.91,WSW,255,12.9,22.6,14,0.00,,---,0.00,VWS V12.07,2013-05-17 20:33:00,
2013-05-17 13:38:00,82.6,29.1,29.91,SSW,210,12.1,22.6,14,0.00,,---,0.00,VWS V12.07,2013-05-17 20:38:00,
2013-05-17 13:43:00,82.3,29.2,29.91,WSW,239,8.6,22.6,14,0.00,,---,0.00,VWS V12.07,2013-05-17 20:43:00,
2013-05-17 13:48:00,82.5,29.4,29.91,South,172,8.1,22.6,14,0.00,,---,0.00,VWS V12.07,2013-05-17 20:48:00,
2013-05-17 13:53:00,81.7,29.6,29.92,SSW,204,8.3,19.9,15,0.00,,---,0.00,VWS V12.07,2013-05-17 20:53:00,
2013-05-17 13:58:00,81.5,30.4,29.91,SSW,198,9.8,19.9,16,0.00,,---,0.00,VWS V12.07,2013-05-17 20:58:00,
2013-05-17 14:00:00,81.4,30.3,29.91,SSW,212,12.2,19.9,16,0.00,,---,0.00,VWS V12.07,2013-05-17 21:00:00,
2013-05-17 14:03:00,81.0,30.0,29.91,SW,226,5.0,19.9,16,0.00,,---,0.00,VWS V12.07,2013-05-17 21:03:00,
2013-05-17 14:08:00,80.8,30.0,29.92,WSW,243,6.6,19.9,16,0.00,,---,0.00,VWS V12.07,2013-05-17 21:08:00,
2013-05-17 14:13:00,81.3,29.9,29.91,South,177,7.2,19.9,15,0.00,,---,0.00,VWS V12.07,2013-05-17 21:13:00,
2013-05-17 14:18:00,81.5,29.9,29.92,South,172,7.8,19.9,15,0.00,,---,0.00,VWS V12.07,2013-05-17 21:18:00,
2013-05-17 14:23:00,81.2,30.0,29.91,SSW,195,9.6,19.9,16,0.00,,---,0.00,VWS V12.07,2013-05-17 21:23:00,
2013-05-17 14:28:00,81.3,29.9,29.91,South,186,0.0,19.9,15,0.00,,---,0.00,VWS V12.07,2013-05-17 21:28:00,
2013-05-17 14:30:00,81.4,30.0,29.91,South,186,0.0,19.0,15,0.00,,---,0.00,VWS V12.07,2013-05-17 21:30:00,
2013-05-17 14:33:00,81.0,30.0,29.91,South,181,12.1,19.9,16,0.00,,---,0.00,VWS V12.07,2013-05-17 21:33:00,
2013-05-17 14:38:00,80.4,29.8,29.90,South,177,3.2,19.9,16,0.00,,---,0.00,VWS V12.07,2013-05-17 21:38:00,
2013-05-17 14:43:00,80.4,29.7,29.91,SSW,193,9.6,19.9,16,0.00,,---,0.00,VWS V12.07,2013-05-17 21:43:00,
2013-05-17 14:48:00,80.4,30.3,29.91,West,264,3.0,19.9,16,0.00,,---,0.00,VWS V12.07,2013-05-17 21:48:00,
2013-05-17 14:53:00,80.8,30.8,29.91,South,180,3.4,19.9,16,0.00,,---,0.00,VWS V12.07,2013-05-17 21:53:00,
2013-05-17 14:58:00,80.8,30.8,29.91,SSW,197,8.8,19.9,16,0.00,,---,0.00,VWS V12.07,2013-05-17 21:58:00,
2013-05-17 15:00:00,80.7,30.7,29.91,SSE,165,10.4,19.9,16,0.00,,---,0.00,VWS V12.07,2013-05-17 22:00:00,
2013-05-17 15:03:00,80.4,30.8,29.91,SSW,202,11.1,23.8,16,0.00,,---,0.00,VWS V12.07,2013-05-17 22:03:00,
2013-05-17 15:08:00,80.4,31.2,29.91,SSW,212,3.1,23.8,17,0.00,,---,0.00,VWS V12.07,2013-05-17 22:08:00,
2013-05-17 15:13:00,80.7,31.1,29.91,South,191,6.8,23.8,16,0.00,,---,0.00,VWS V12.07,2013-05-17 22:13:00,
2013-05-17 15:18:00,80.6,31.2,29.91,SSE,160,8.6,23.8,17,0.00,,---,0.00,VWS V12.07,2013-05-17 22:18:00,
2013-05-17 15:23:00,80.4,31.0,29.91,SSW,200,10.2,23.8,17,0.00,,---,0.00,VWS V12.07,2013-05-17 22:23:00,
2013-05-17 15:28:00,80.5,31.1,29.90,SSE,159,6.5,23.8,17,0.00,,---,0.00,VWS V12.07,2013-05-17 22:28:00,
2013-05-17 15:30:00,80.4,31.0,29.90,SW,217,12.0,23.8,17,0.00,,---,0.00,VWS V12.07,2013-05-17 22:30:00,
2013-05-17 15:33:00,80.4,30.8,29.91,South,190,6.6,23.8,16,0.00,,---,0.00,VWS V12.07,2013-05-17 22:33:00,
2013-05-17 15:38:00,80.5,30.5,29.91,South,177,3.5,23.8,16,0.00,,---,0.00,VWS V12.07,2013-05-17 22:38:00,
2013-05-17 15:43:00,80.3,30.5,29.91,South,191,17.5,23.8,16,0.00,,---,0.00,VWS V12.07,2013-05-17 22:43:00,
2013-05-17 15:48:00,80.2,30.7,29.91,South,186,16.0,23.8,16,0.00,,---,0.00,VWS V12.07,2013-05-17 22:48:00,
2013-05-17 15:53:00,80.1,30.8,29.91,SSW,197,7.6,20.9,17,0.00,,---,0.00,VWS V12.07,2013-05-17 22:53:00,
2013-05-17 15:58:00,80.2,30.4,29.91,SSW,193,10.1,20.9,16,0.00,,---,0.00,VWS V12.07,2013-05-17 22:58:00,
2013-05-17 16:00:00,80.2,30.4,29.91,South,172,8.9,20.9,16,0.00,,---,0.00,VWS V12.07,2013-05-17 23:00:00,
2013-05-17 16:03:00,79.9,29.9,29.91,SSW,204,5.3,20.9,16,0.00,,---,0.00,VWS V12.07,2013-05-17 23:03:00,
2013-05-17 16:08:00,79.7,30.3,29.90,SSW,195,4.7,20.9,16,0.00,,---,0.00,VWS V12.07,2013-05-17 23:08:00,
2013-05-17 16:13:00,79.4,30.1,29.90,SSW,200,10.5,20.9,16,0.00,,---,0.00,VWS V12.07,2013-05-17 23:13:00,
2013-05-17 16:18:00,79.1,30.1,29.90,South,187,7.0,20.9,17,0.00,,---,0.00,VWS V12.07,2013-05-17 23:18:00,
2013-05-17 16:23:00,79.1,30.0,29.91,SSE,158,14.5,20.9,17,0.00,,---,0.00,VWS V12.07,2013-05-17 23:23:00,
2013-05-17 16:28:00,79.2,29.9,29.91,WSW,242,5.1,20.9,16,0.00,,---,0.00,VWS V12.07,2013-05-17 23:28:00,
2013-05-17 16:30:00,79.1,29.9,29.91,South,188,8.2,17.4,16,0.00,,---,0.00,VWS V12.07,2013-05-17 23:30:00,
2013-05-17 16:33:00,79.1,29.2,29.91,South,188,0.0,20.9,16,0.00,,---,0.00,VWS V12.07,2013-05-17 23:33:00,
2013-05-17 16:38:00,79.3,28.6,29.91,SE,135,3.0,20.9,16,0.00,,---,0.00,VWS V12.07,2013-05-17 23:38:00,
2013-05-17 16:43:00,79.4,28.2,29.91,South,183,0.0,20.9,15,0.00,,---,0.00,VWS V12.07,2013-05-17 23:43:00,
2013-05-17 16:48:00,79.4,27.0,29.91,SW,217,0.0,20.9,14,0.00,,---,0.00,VWS V12.07,2013-05-17 23:48:00,
2013-05-17 16:53:00,79.7,27.7,29.91,WSW,239,3.5,13.5,15,0.00,,---,0.00,VWS V12.07,2013-05-17 23:53:00,
2013-05-17 16:58:00,79.7,26.5,29.91,SSE,163,0.0,13.5,14,0.00,,---,0.00,VWS V12.07,2013-05-17 23:58:00,
2013-05-17 17:00:00,79.4,26.3,29.91,SW,222,5.6,13.5,14,0.00,,---,0.00,VWS V12.07,2013-05-18 00:00:00,
2013-05-17 17:04:00,79.4,26.1,29.91,SW,225,0.0,13.9,14,0.00,,---,0.00,VWS V12.07,2013-05-18 00:04:00,
2013-05-17 17:09:00,79.4,27.0,29.91,SSW,204,3.3,13.9,14,0.00,,---,0.00,VWS V12.07,2013-05-18 00:09:00,
2013-05-17 17:14:00,79.3,27.2,29.91,SSW,207,6.2,13.9,15,0.00,,---,0.00,VWS V12.07,2013-05-18 00:14:00,
2013-05-17 17:19:00,79.3,27.0,29.91,SW,233,3.2,14.9,15,0.00,,---,0.00,VWS V12.07,2013-05-18 00:19:00,
2013-05-17 17:24:00,79.3,27.0,29.91,SE,132,10.3,14.9,15,0.00,,---,0.00,VWS V12.07,2013-05-18 00:24:00,
2013-05-17 17:29:00,79.4,27.6,29.90,WSW,253,5.7,17.4,15,0.00,,---,0.00,VWS V12.07,2013-05-18 00:29:00,
2013-05-17 17:30:00,79.4,27.4,29.91,SSW,195,5.7,17.4,15,0.00,,---,0.00,VWS V12.07,2013-05-18 00:30:00,
2013-05-17 17:34:00,79.3,27.9,29.90,South,177,9.9,21.3,15,0.00,,---,0.00,VWS V12.07,2013-05-18 00:34:00,
2013-05-17 17:39:00,79.4,27.8,29.90,South,180,5.9,21.3,15,0.00,,---,0.00,VWS V12.07,2013-05-18 00:39:00,
2013-05-17 17:44:00,79.7,27.7,29.90,South,169,7.6,21.3,15,0.00,,---,0.00,VWS V12.07,2013-05-18 00:44:00,
2013-05-17 17:49:00,79.9,28.0,29.90,WSW,240,0.0,21.3,15,0.00,,---,0.00,VWS V12.07,2013-05-18 00:49:00,
2013-05-17 17:54:00,80.1,28.2,29.89,South,181,0.0,21.3,15,0.00,,---,0.00,VWS V12.07,2013-05-18 00:54:00,
2013-05-17 17:59:00,80.2,27.8,29.89,SW,228,0.0,21.3,15,0.00,,---,0.00,VWS V12.07,2013-05-18 00:59:00,
2013-05-17 18:00:00,80.3,28.0,29.89,SW,228,0.0,21.3,15,0.00,,---,0.00,VWS V12.07,2013-05-18 01:00:00,
2013-05-17 18:04:00,80.2,27.6,29.89,SSW,198,0.0,21.3,14,0.00,,---,0.00,VWS V12.07,2013-05-18 01:04:00,
2013-05-17 18:09:00,80.0,27.6,29.89,SW,215,4.2,21.3,15,0.00,,---,0.00,VWS V12.07,2013-05-18 01:09:00,
2013-05-17 18:14:00,79.4,27.3,29.89,WSW,246,10.5,21.3,15,0.00,,---,0.00,VWS V12.07,2013-05-18 01:14:00,
2013-05-17 18:19:00,79.3,27.2,29.89,SE,124,0.0,21.3,15,0.00,,---,0.00,VWS V12.07,2013-05-18 01:19:00,
2013-05-17 18:24:00,78.9,27.2,29.89,SSE,166,6.2,21.3,15,0.00,,---,0.00,VWS V12.07,2013-05-18 01:24:00,
2013-05-17 18:29:00,79.2,27.5,29.89,South,173,0.0,21.3,15,0.00,,---,0.00,VWS V12.07,2013-05-18 01:29:00,
2013-05-17 18:30:00,79.0,27.3,29.89,South,173,0.0,16.3,15,0.00,,---,0.00,VWS V12.07,2013-05-18 01:30:00,
2013-05-17 18:34:00,79.1,27.0,29.89,South,173,0.0,21.3,15,0.00,,---,0.00,VWS V12.07,2013-05-18 01:34:00,
2013-05-17 18:39:00,79.2,26.8,29.89,South,191,3.0,21.3,14,0.00,,---,0.00,VWS V12.07,2013-05-18 01:39:00,
2013-05-17 18:44:00,79.1,26.4,29.89,South,170,3.2,21.3,14,0.00,,---,0.00,VWS V12.07,2013-05-18 01:44:00,
2013-05-17 18:49:00,79.0,26.8,29.89,SSE,156,0.0,21.3,15,0.00,,---,0.00,VWS V12.07,2013-05-18 01:49:00,
2013-05-17 18:54:00,78.8,27.0,29.89,SSW,205,0.0,9.4,15,0.00,,---,0.00,VWS V12.07,2013-05-18 01:54:00,
2013-05-17 18:59:00,78.4,27.0,29.89,South,174,0.0,9.4,15,0.00,,---,0.00,VWS V12.07,2013-05-18 01:59:00,
2013-05-17 19:00:00,78.4,26.8,29.89,South,174,0.0,9.4,15,0.00,,---,0.00,VWS V12.07,2013-05-18 02:00:00,
2013-05-17 19:04:00,78.1,26.9,29.89,South,190,0.0,9.4,15,0.00,,---,0.00,VWS V12.07,2013-05-18 02:04:00,
2013-05-17 19:09:00,77.9,26.7,29.90,South,191,4.5,10.9,15,0.00,,---,0.00,VWS V12.07,2013-05-18 02:09:00,
2013-05-17 19:14:00,77.5,26.4,29.90,South,188,6.1,10.9,15,0.00,,---,0.00,VWS V12.07,2013-05-18 02:14:00,
2013-05-17 19:19:00,77.1,26.6,29.90,South,187,0.0,10.9,15,0.00,,---,0.00,VWS V12.07,2013-05-18 02:19:00,
2013-05-17 19:24:00,76.6,26.6,29.90,South,188,4.5,10.9,16,0.00,,---,0.00,VWS V12.07,2013-05-18 02:24:00,
2013-05-17 19:29:00,75.9,26.7,29.90,SSE,156,0.0,10.9,16,0.00,,---,0.00,VWS V12.07,2013-05-18 02:29:00,
2013-05-17 19:30:00,76.0,26.8,29.90,SSE,156,0.0,10.9,16,0.00,,---,0.00,VWS V12.07,2013-05-18 02:30:00,
2013-05-17 19:34:00,75.4,27.0,29.90,SE,143,0.0,10.9,17,0.00,,---,0.00,VWS V12.07,2013-05-18 02:34:00,
2013-05-17 19:39:00,74.9,27.2,29.90,SE,143,0.0,10.9,17,0.00,,---,0.00,VWS V12.07,2013-05-18 02:39:00,
2013-05-17 19:44:00,74.3,27.1,29.90,SSE,165,0.0,10.9,17,0.00,,---,0.00,VWS V12.07,2013-05-18 02:44:00,
2013-05-17 19:49:00,74.0,27.3,29.91,South,172,0.0,10.9,18,0.00,,---,0.00,VWS V12.07,2013-05-18 02:49:00,
2013-05-17 19:54:00,73.9,27.4,29.91,SSW,201,0.0,5.8,18,0.00,,---,0.00,VWS V12.07,2013-05-18 02:54:00,
2013-05-17 19:59:00,73.8,27.4,29.91,SSW,201,0.0,5.8,18,0.00,,---,0.00,VWS V12.07,2013-05-18 02:59:00,
2013-05-17 20:00:00,73.8,27.4,29.90,SSW,201,0.0,5.8,18,0.00,,---,0.00,VWS V12.07,2013-05-18 03:00:00,
2013-05-17 20:04:00,73.7,27.2,29.91,SSW,195,0.0,5.8,18,0.00,,---,0.00,VWS V12.07,2013-05-18 03:04:00,
2013-05-17 20:09:00,73.8,27.4,29.91,SSW,195,0.0,5.8,18,0.00,,---,0.00,VWS V12.07,2013-05-18 03:09:00,
2013-05-17 20:14:00,73.5,27.4,29.91,SW,222,0.0,5.8,18,0.00,,---,0.00,VWS V12.07,2013-05-18 03:14:00,
2013-05-17 20:19:00,73.3,27.4,29.91,West,260,0.0,5.8,18,0.00,,---,0.00,VWS V12.07,2013-05-18 03:19:00,
2013-05-17 20:24:00,73.1,27.6,29.92,West,260,0.0,5.8,18,0.00,,---,0.00,VWS V12.07,2013-05-18 03:24:00,
2013-05-17 20:29:00,72.9,27.6,29.92,West,260,0.0,5.8,18,0.00,,---,0.00,VWS V12.07,2013-05-18 03:29:00,
2013-05-17 20:30:00,73.0,27.7,29.92,West,260,0.0,4.2,18,0.00,,---,0.00,VWS V12.07,2013-05-18 03:30:00,
2013-05-17 20:34:00,72.8,27.8,29.92,West,260,0.0,5.8,19,0.00,,---,0.00,VWS V12.07,2013-05-18 03:34:00,
2013-05-17 20:39:00,72.7,28.1,29.92,WSW,238,0.0,5.8,19,0.00,,---,0.00,VWS V12.07,2013-05-18 03:39:00,
2013-05-17 20:44:00,72.4,28.0,29.92,SSE,166,0.0,5.8,19,0.00,,---,0.00,VWS V12.07,2013-05-18 03:44:00,
2013-05-17 20:49:00,72.5,28.1,29.92,South,181,5.3,6.8,19,0.00,,---,0.00,VWS V12.07,2013-05-18 03:49:00,
2013-05-17 20:54:00,72.8,28.0,29.93,WSW,239,4.3,6.8,19,0.00,,---,0.00,VWS V12.07,2013-05-18 03:54:00,
2013-05-17 20:59:00,72.9,28.1,29.93,WSW,240,0.0,6.8,19,0.00,,---,0.00,VWS V12.07,2013-05-18 03:59:00,
2013-05-17 21:00:00,73.0,28.1,29.93,SW,236,3.5,6.8,19,0.00,,---,0.00,VWS V12.07,2013-05-18 04:00:00,
2013-05-17 21:01:00,73.0,28.2,29.93,WSW,240,0.0,6.8,19,0.00,,---,0.00,VWS V12.07,2013-05-18 04:01:00,
2013-05-17 21:06:00,72.7,28.4,29.93,WSW,250,1.1,6.8,19,0.00,,---,0.00,VWS V12.07,2013-05-18 04:06:00,
2013-05-17 21:11:00,72.3,28.5,29.93,WSW,250,0.0,6.8,20,0.00,,---,0.00,VWS V12.07,2013-05-18 04:11:00,
2013-05-17 21:16:00,72.2,28.8,29.93,WSW,250,0.0,6.8,20,0.00,,---,0.00,VWS V12.07,2013-05-18 04:16:00,
2013-05-17 21:21:00,71.8,28.9,29.93,WSW,250,0.0,6.8,20,0.00,,---,0.00,VWS V12.07,2013-05-18 04:21:00,
2013-05-17 21:26:00,71.6,28.7,29.94,WSW,250,0.0,6.8,20,0.00,,---,0.00,VWS V12.07,2013-05-18 04:26:00,
2013-05-17 21:30:00,71.5,28.7,29.94,WSW,250,0.0,6.5,20,0.00,,---,0.00,VWS V12.07,2013-05-18 04:30:00,
2013-05-17 21:31:00,71.5,28.6,29.94,WSW,250,0.0,6.8,20,0.00,,---,0.00,VWS V12.07,2013-05-18 04:31:00,
2013-05-17 21:36:00,71.6,28.8,29.94,WSW,250,0.0,6.8,20,0.00,,---,0.00,VWS V12.07,2013-05-18 04:36:00,
2013-05-17 21:41:00,71.5,29.0,29.94,WSW,250,0.0,6.8,20,0.00,,---,0.00,VWS V12.07,2013-05-18 04:41:00,
2013-05-17 21:46:00,71.0,29.4,29.94,WSW,250,0.0,6.8,21,0.00,,---,0.00,VWS V12.07,2013-05-18 04:46:00,
2013-05-17 21:51:00,70.5,28.8,29.94,WSW,246,0.0,7.1,21,0.00,,---,0.00,VWS V12.07,2013-05-18 04:51:00,
2013-05-17 21:56:00,70.3,28.9,29.94,SW,224,0.0,7.3,21,0.00,,---,0.00,VWS V12.07,2013-05-18 04:56:00,
2013-05-17 22:00:00,70.2,28.8,29.93,SW,224,0.0,7.3,21,0.00,,---,0.00,VWS V12.07,2013-05-18 05:00:00,
2013-05-17 22:01:00,70.0,28.9,29.94,West,281,3.4,7.3,22,0.00,,---,0.00,VWS V12.07,2013-05-18 05:01:00,
2013-05-17 22:06:00,69.8,28.9,29.94,SW,233,3.4,7.3,22,0.00,,---,0.00,VWS V12.07,2013-05-18 05:06:00,
2013-05-17 22:11:00,69.5,28.9,29.94,SW,236,0.0,7.3,22,0.00,,---,0.00,VWS V12.07,2013-05-18 05:11:00,
2013-05-17 22:16:00,69.3,29.0,29.93,SW,236,0.0,7.3,22,0.00,,---,0.00,VWS V12.07,2013-05-18 05:16:00,
2013-05-17 22:21:00,68.9,29.1,29.93,SW,236,0.0,7.3,22,0.00,,---,0.00,VWS V12.07,2013-05-18 05:21:00,
2013-05-17 22:26:00,68.5,29.4,29.93,WSW,256,3.4,7.3,23,0.00,,---,0.00,VWS V12.07,2013-05-18 05:26:00,
2013-05-17 22:30:00,68.4,29.4,29.93,WSW,256,0.0,7.0,23,0.00,,---,0.00,VWS V12.07,2013-05-18 05:30:00,
2013-05-17 22:31:00,68.2,29.3,29.93,WSW,255,4.3,7.3,23,0.00,,---,0.00,VWS V12.07,2013-05-18 05:31:00,
2013-05-17 22:36:00,68.1,29.2,29.93,SW,224,0.0,7.3,23,0.00,,---,0.00,VWS V12.07,2013-05-18 05:36:00,
2013-05-17 22:41:00,67.8,29.4,29.93,WSW,249,0.0,7.3,24,0.00,,---,0.00,VWS V12.07,2013-05-18 05:41:00,
2013-05-17 22:46:00,67.7,29.4,29.93,WSW,253,3.1,7.3,24,0.00,,---,0.00,VWS V12.07,2013-05-18 05:46:00,
2013-05-17 22:51:00,67.9,29.5,29.93,SW,224,3.0,7.8,24,0.00,,---,0.00,VWS V12.07,2013-05-18 05:51:00,
2013-05-17 22:56:00,68.4,29.6,29.93,WSW,257,4.3,7.8,23,0.00,,---,0.00,VWS V12.07,2013-05-18 05:56:00,
2013-05-17 23:00:00,68.4,29.6,29.93,West,270,5.3,7.8,23,0.00,,---,0.00,VWS V12.07,2013-05-18 06:00:00,
2013-05-17 23:01:00,68.5,29.6,29.93,WSW,256,6.4,8.5,23,0.00,,---,0.00,VWS V12.07,2013-05-18 06:01:00,
2013-05-17 23:06:00,68.9,30.0,29.93,SW,229,4.7,8.8,23,0.00,,---,0.00,VWS V12.07,2013-05-18 06:06:00,
2013-05-17 23:11:00,69.1,30.5,29.92,SSW,202,2.5,9.1,24,0.00,,---,0.00,VWS V12.07,2013-05-18 06:11:00,
2013-05-17 23:16:00,69.6,30.6,29.92,WSW,240,4.5,9.1,23,0.00,,---,0.00,VWS V12.07,2013-05-18 06:16:00,
2013-05-17 23:21:00,69.8,30.7,29.92,SW,236,4.8,9.1,23,0.00,,---,0.00,VWS V12.07,2013-05-18 06:21:00,
2013-05-17 23:26:00,70.3,30.9,29.92,West,263,5.1,9.1,23,0.00,,---,0.00,VWS V12.07,2013-05-18 06:26:00,
2013-05-17 23:30:00,70.4,31.0,29.92,SW,232,0.0,9.1,23,0.00,,---,0.00,VWS V12.07,2013-05-18 06:30:00,
2013-05-17 23:31:00,70.4,31.0,29.92,SW,232,0.0,9.1,23,0.00,,---,0.00,VWS V12.07,2013-05-18 06:31:00,
2013-05-17 23:36:00,70.0,31.0,29.92,SW,232,0.0,9.1,23,0.00,,---,0.00,VWS V12.07,2013-05-18 06:36:00,
2013-05-17 23:41:00,69.5,31.1,29.93,WSW,252,0.0,9.1,24,0.00,,---,0.00,VWS V12.07,2013-05-18 06:41:00,
2013-05-17 23:46:00,69.0,31.2,29.93,West,262,0.0,9.1,24,0.00,,---,0.00,VWS V12.07,2013-05-18 06:46:00,
2013-05-17 23:51:00,68.5,31.3,29.93,West,262,0.0,9.1,25,0.00,,---,0.00,VWS V12.07,2013-05-18 06:51:00,
2013-05-17 23:56:00,68.3,31.5,29.93,West,262,0.0,4.1,25,0.00,,---,0.00,VWS V12.07,2013-05-18 06:56:00,